This demonstration page uses our WeatherBlox Daily Observations layout. Learn more.

Left ArrowRight Arrow

Hourly Observations for October 20, 2018

Temp ( °F °C ) Dew Point ( °F °C ) Humidity (%) Winds ( mph kmh ) Pressure ( in mb ) Visibility ( mi km ) Precip ( " mm )
12:54 am 00:54 Clear 45 7.2 33 0.6 63 63 NW 3 6 30.21 1023 10 16.0934 0 0
1:54 am 01:54 Clear 40 4.4 32 0 73 73 N 6 9 30.21 1023 10 16.0934 0 0
2:54 am 02:54 Clear 42 5.6 33 0.6 71 71 Calm 30.22 1023 10 16.0934 0 0
3:54 am 03:54 Clear 44 6.7 33 0.6 65 65 Calm 30.22 1023 10 16.0934 0 0
4:54 am 04:54 Clear 38 3.3 31 -0.6 76 76 NNW 6 9 30.24 1024 10 16.0934 0 0
5:54 am 05:54 Clear 45 7.2 32 0 61 61 NW 7 11 30.24 1024 10 16.0934 0 0
6:54 am 06:54 Clear 40 4.4 32 0 73 73 NNW 7 11 30.27 1025 10 16.0934 0 0
7:54 am 07:54 Sunny 43 6.1 32 0 65 65 NW 9 15 30.3 1026 10 16.0934 0 0
8:54 am 08:54 Sunny 46 7.8 33 0.6 61 61 NW 9 15 30.32 1027 10 16.0934 0 0
9:54 am 09:54 Sunny 52 11.1 32 0 47 47 NNW 12 19 30.34 1027 10 16.0934 0 0
10:54 am 10:54 Sunny 56 13.3 33 0.6 42 42 NW 15 24 30.35 1028 10 16.0934 0 0
11:54 am 11:54 Sunny 58 14.4 30 -1.1 35 35 NNW 24 39 30.36 1028 10 16.0934 0 0
12:54 pm 12:54 Sunny 59 15 28 -2.2 31 31 NNW 25 41 30.36 1028 10 16.0934 0 0
1:54 pm 13:54 Sunny 60 15.6 27 -2.8 28 28 NNW 25 41 30.35 1028 10 16.0934 0 0
2:54 pm 14:54 Sunny 61 16.1 27 -2.8 27 27 N 17 28 30.34 1028 10 16.0934 0 0
3:54 pm 15:54 Sunny 60 15.6 28 -2.2 30 30 N 17 28 30.35 1028 10 16.0934 0 0
4:54 pm 16:54 Sunny 57 13.9 22 -5.6 26 26 N 18 30 30.35 1028 10 16.0934 0 0
5:54 pm 17:54 Sunny 54 12.2 26 -3.3 34 34 NNE 12 19 30.36 1028 10 16.0934 0 0
6:54 pm 18:54 Clear 44 6.7 25 -3.9 47 47 NNE 7 11 30.38 1029 10 16.0934 0 0
7:54 pm 19:54 Clear 38 3.3 25 -3.9 60 60 NE 8 13 30.39 1029 10 16.0934 0 0
8:54 pm 20:54 Clear 44 6.7 25 -3.9 47 47 Calm 30.4 1030 9 14.48406 0 0
9:54 pm 21:54 Clear 34 1.1 26 -3.3 73 73 N 5 7 30.4 1030 10 16.0934 0 0
10:54 pm 22:54 Clear 32 0 25 -3.9 75 75 N 5 7 30.41 1030 10 16.0934 0 0
11:54 pm 23:54 Clear 34 1.1 28 -2.2 79 79 Calm 30.4 1029 9 14.48406 0 0

Powered by AerisWeather